Orbital Elements at Epoch 2459000.5 (2020-May-31.0) TDB
Reference: JPL 30 (heliocentric ecliptic J2000)
Element | Value | Uncertainty (1-sigma) | Units |
e | .1470741632805635 | 4.0649e-08 | |
a | 2.604086029473776 | 1.2163e-08 | au |
q | 2.221092255578315 | 1.042e-07 | au |
i | 13.57375157283471 | 4.8889e-06 | deg |
node | 32.08503278733406 | 1.5209e-05 | deg |
peri | 26.73140657280135 | 2.1549e-05 | deg |
M | 150.1325371949258 | 1.7656e-05 | deg |
tp | 2458360.391282700709 (2018-Aug-29.89128270) | 7.2643e-05 | TDB |
period | 1534.904708421414 4.20 | 1.0754e-05 2.944e-08 | d yr |
n | .2345422474925138 | 1.6432e-09 | deg/d |
Q | 2.987079803369236 | 1.3952e-08 | au |
|
| | Orbit Determination Parameters
Additional Information
|